Погода в Тюмени

Погода в Тюмени : погода сейчас, прогноз погоды и архив. Всё, что Вы хотите узнать о погоде в Тюмени!

Хотите узнать прогноз погоды в Тюмени? Тогда Вам сюда: Погода в Тюмени

Поиск расширенной информации на нашем сайте:

Другие новости

Новости СМИ2

Главная страница сайта

Новости сайта

03.07.2017

Напоминаем, что на нашем специализированном сайте Метеоцентр.Азия вы можете получить высокодетализированные автоматические прогнозы погоды по пунктам России, СНГ и мира в авиационном формате (включающие направление и скорость ветра, видимость, явления погоды, количество и форму облачности, нижнюю и верхнюю границу облачности).


Погода в Тюмени - сегодня

Время (UTC), дата Ветер
(°,м/с) 
Видим.   Явления Облачность Т
(°С)
Тd
(°С)
f(%) Тe
(°С)
Pmin
(гПа)
dP
(гПа)
Po
(мм)
O2
(г/м3)
Тmin Tmax R s Состояние
почвы
21 15.08.17 200 (Ю) 50000 м    ясно 
+13.3 +11.8 91 +17  1021.3  -0.4  757  289           
00 16.08.17 220 (ЮЗ) 4000 м    1/0 средняя 
[Ac trans]
+13.2 +10.4 83 +16  1020.9  -0.4  757  289           
03 16.08.17 210 (ЮЗ) 4000 м    1/0 средняя 
[Ac trans]
+17.6 +11.8 69 +21  1020.6  -0.1  756  284  +12.6         
06 16.08.17 220 (ЮЗ) 4000 м    3/0 средняя 
[Ac cast]
+23.3 +12.7 51 +28  1019.8  -0.7  756  278           
09 16.08.17 260 (З) 4000 м    9/4 600 м кучево-дожд., средняя, верхняя 
[Cb calv|Ac cast|Ci fib]
+23.2 +15.1 60 +32  1019.5  -0.2  756  278           
12 16.08.17 240 (ЮЗ) 2{10}  4000 м  {ливн. осадки}  9/1 600 м средняя, верхняя 
[Cu med, cong|Ac cuf|Ci fib]
+22.4 +16.8 71 +34  1019.6  756  278           
18 16.08.17 290 (З) 50000 м    ясно 
+13.9 +13 94 +20  1022.9  0.9  758  288           
21 16.08.17 300 (СЗ) 50000 м    ясно 
+12.7 +11.1 90 +16  1023.2  0.3  758  290           
00 17.08.17 310 (СЗ) 4000 м    1/0 средняя 
[Ac trans]
+11.2 +9.6 90 +12  1023.7  0.4  759  292           
03 17.08.17 310 (СЗ) 4000 м    3/0 средняя, верхняя 
[Ac trans|Ci sp]
+14.6 +10.5 76 +17  1024  0.4  759  288  +10.8         
06 17.08.17 310 (СЗ) 4000 м    4/0 верхняя 
[Ci]
+19.6 +9.3 51 +20  1024  0.2  759  284           
12 17.08.17 300 (СЗ) 4000 м    3/3 600 м 
[Cu med, cong]
+21 +6.6 39 +21  1022.5  -0.6  758  283           
15 17.08.17 360 (С) 1{10}  4000 м  в посл. час ливневой дождь  8/5 600 м кучево-дожд., средняя 
[Cb cap|Ac trans]
+14.3 +10.4 77 +17  1024.7  1.9  759  289    +21.6  0.1     
18 17.08.17 310 (СЗ) 50000 м  {ливн. осадки}  ясно 
+11.1 +10.3 95 +13  1025.6  0.8  760  292           
21 17.08.17 310 (СЗ) 50000 м    ясно 
+9.8 +9 95 +11  1026.1  0.4  760  294           
00 18.08.17 310 (СЗ) 4000 м    ясно 
+8.6 +7.8 95 +10  1026.6  0.5  761  296           
03 18.08.17 330 (СЗ) 4000 м    1/0 средняя 
[Ac trans]
+11 +9.2 89 +11  1027.1  0.6  761  293  +8.3         
06 18.08.17 350 (С) 4000 м    3/3 600 м верхняя 
[Cu hum|Ci fib]
+16.3 +9.9 66 +18  1027.3  0.4  761  288           
09 18.08.17 340 (С) 4000 м    9/8 600 м верхняя 
[Cu med, cong|Ci fib]
+17.8 +8.1 53 +19  1026.9  -0.4  761  287           
12 18.08.17 310 (СЗ) 4000 м    8/1 600 м средняя, верхняя 
[Cu med, cong|Ac trans|Ci fib]
+17.2 +7.7 54 +18  1026.1  -0.4  761  287           
18 18.08.17 тихо ()   50000 м  местами туман поземный  ясно 
+8.4 +7.8 96 +8  1026.6  0.3  761  296           
21 18.08.17 тихо ()   50000 м    ясно 
+6.3 +6 98 +6  1026.1  -0.6  760  298           
00 19.08.17 тихо ()   4000 м  местами туман поземный  3/0 средняя, верхняя 
[Ac trans|Ci fib]
+4.7 +4.5 99 +5  1026  0.1  760  300           
03 19.08.17 220 (ЮЗ) 4000 м    9/5 600 м средняя, верхняя 
[Sc|Ac trans|Ci fib]
+11.8 +9.1 84 +12  1025.3  -0.4  760  292  +4.2         
06 19.08.17 230 (ЮЗ) 4000 м    9/0 верхняя 
[Ci fib]
+18.8 +10 57 +20  1024.1  -0.9  759  284           
Время (UTC), дата Ветер
(°,м/с) 
Видим.   Явления Облачность Т
(°С)
Тd
(°С)
f(%) Тe
(°С)
Pmin
(гПа)
dP
(гПа)
Po
(мм)
O2
(г/м3)
Тmin Tmax R s Состояние
почвы

Для получения пояснительной информации подведите курсор к названию столбца.

ПОГОДА в Тюмени - архив

Всё, что Вы хотите узнать о погоде в Тюмени - удобно и подробно!

Выберите нужную дату (начиная с 1 января 2015* года) и нажмите кнопку "Найти".
Будут отображены архивные сводки погоды по пункту Тюмень, начиная с указанной даты.


Отображать данные в формате CSV (для использования в таблицах Excel)


Внимание! Наш архив погоды предназначен исключительно для личного некоммерческого использования в познавательных целях. Если Вам необходимы официальные справки о состоянии погоды (для производственных, юридических, коммерческих и т.п. целей), обращайтесь в органы Росгидромета.

*Примечание: данная дата относится к архиву по метеостанциям СССР (Россия, СНГ, Балтия).
Архив по метеостанциям Зарубежной Европы и Азии (кроме Китая) хранится 10 дней, по другим регионам земного шара (Китай, Африка, Америка, Австралия, Океания) - 1 день.

Тюмень - район местоположения метеостанции


Название, широта, долгота, высота метеостанции:
Тюмень 57.1°ш. 65.4°д. 102 м над ур. моря [Российская Федерация]

Дополнительная информация

В oтличие oт бoльшинства пoгoдных сайтoв мы публикуем пoдрoбную метеoинфoрмацию в детальнoм прoфессиoнальнoм фoрмате.

Характеристики температуры и влажнoсти вoздуха измеряются на высoте 2 м в тени вдали oт зданий и деревьев.
Скoрoсть ветра измеряется на высoте 10 м (на урoвне рoста челoвека скoрoсть ветра ниже в 1.5-2 раза). Если метеoстанция нахoдится в гoрoде или в лесу, тo скoрoсть ветра занижена на 2-4 м/с пo сравнению с oткрытым местoм. Скoрoсть ветра над акватoриями крупных рек и oзёр, а также на вершинах хoлмoв на 2-5 м/с выше, чем в oбычных услoвиях.
Атмoсфернoе давление в разных тoчках местнoсти мoжет значительнo oтличаться oт давления на метеoстанции, в зависимoсти oт услoвий рельефа (при пoдъёме на 10 м давление пoнижается примернo на 1 мм рт.ст.).